Location: *
(46.1866°S, 178.5290°W)
Time: 09:00:24
(UTC+00:00)

SL-8 R/B - Pass Details

Date: 19 May 2021
Orbit: 656 x 667 km, 48.4° (Epoch: 14 June)

Event Time Altitude Azimuth Distance (km) Brightness Sun altitude
Rises 05:39:47 0° 281° (W) 3,021 9.2 -12.4°
Reaches altitude 10° 05:42:09 10° 279° (W) 2,109 7.8 -12.7°
Maximum altitude 05:47:02 77° 192° (SSW) 700 3.8 -13.6°
Enters shadow 05:50:12 22° 108° (ESE) 1,471 4.8 -14.1°
